[Date Prev][Date Next][Thread Prev][Thread Next] - [Date Index][Thread Index][Author Index]
2 Line ISS Keps 9-30
- Subject: [sarex] 2 Line ISS Keps 9-30
- From: "Dave Larsen PhD" <doc@xxxxxxxxxxx>
- Date: Fri, 30 Sep 2005 05:48:31 -0700
ISS
1 25544U 98067A 05273.48624873 .00016596 00000-0 12043-3 0 4589
2 25544 051.6432 081.6069 0001728 094.3481 292.5658 15.73551544392258
----
Via the sarex mailing list at AMSAT.ORG courtesy of AMSAT-NA.
To unsubscribe, send "unsubscribe sarex" to Majordomo@amsat.org
AMSAT Home